STARLINK-2752 (48692 NORAD) Tracking and Keplerian Element Data

This shows tracking and keplerian element data for the satellite.

Feedback or suggestion? Click here.




ElementValue
Catalog48692
NameSTARLINK-2752
Epoch Orbit173
Epoch Day170.58334491
Epoch Year2021
RAAN306.2382
Inclination53.0478
Eccentricity0.0001713
Argument of Perigee46.9668
Mean Anonmoly88.1782
Mean Motion15.73230715
Decay Rate-7.132E-05
L11 48692U 21044BG 21170.58334491 -.00007132 00000-0 -46355-4 0 9990
L22 48692 53.0478 306.2382 0001713 46.9668 88.1782 15.73230715 1732

Live tracking and technical data element details for STARLINK-2752 (NORAD 48692). STARLINK-2752 can be tracked NOW for your location showing map with azimuth and elevation plus other details from your city location.

Track the satellite on the map from your city or location and see movement details for azimuth, elevation, latitude, longitude, range, height, and movement on the map or in text.







IsCatalogInMostPopularTable: catalog: 48692, numindb: 4
Update: records affected: 1



GetName: 48692 STARLINK-2752

Hit Count: updated at: Mon, 21 Jun 2021 03:07:36 GMT